Hourly Data Report for December 07, 2018

TORONTO CITY
ONTARIO
Current Station Operator: ECCC - MSC

43°40'00.000" N
79°24'00.000" W
112.50 m
6158355
71508
XTO

Download Data

Hourly Data (December 2018)
Hourly Data Report for December 7, 2018
TIME
LST
Temp Definition
°C
Dew Point Definition
°C
Rel Hum Definition
%
Precip. Amount Definition
mm

Wind Dir Definition
10's deg

Wind Spd Definition
km/h
Visibility Definition
km
Stn Press Definition
kPa
Hmdx Definition


Wind Chill Definition


Weather Definition


00:00 -2.8 -9.1 62 0.0 LegendMM LegendMM   100.90     LegendNANA
01:00 -3.2 -8.3 68 0.0 LegendMM LegendMM   100.97     LegendNANA
02:00 -3.4 -7.6 73 0.0 LegendMM LegendMM   101.06     LegendNANA
03:00 -4.1 -7.9 75 0.0 LegendMM LegendMM   101.17     LegendNANA
04:00 -5.0 -7.8 80 0.2 LegendMM LegendMM   101.24     LegendNANA
05:00 -6.1 -10.3 72 0.0 LegendMM LegendMM   101.36     LegendNANA
06:00 -7.0 -11.3 72 0.0 LegendMM LegendMM   101.42     LegendNANA
07:00 -7.5 -11.9 71 0.0 LegendMM LegendMM   101.51     LegendNANA
08:00 -7.4 -11.9 70 0.0 LegendMM LegendMM   101.58     LegendNANA
09:00 -7.2 -12.2 67 0.0 LegendMM LegendMM   101.69     LegendNANA
10:00 -6.6 -12.2 65 0.0 LegendMM LegendMM   101.75     LegendNANA
11:00 -5.2 -12.2 58 0.0 LegendMM LegendMM   101.77     LegendNANA
12:00 -5.0 -13.3 52 0.0 LegendMM LegendMM   101.76     LegendNANA
13:00 -4.5 -12.7 53 0.0 LegendMM LegendMM   101.69     LegendNANA
14:00 -4.2 -13.0 50 0.0 LegendMM LegendMM   101.65     LegendNANA
15:00 -3.9 -13.6 47 0.0 LegendMM LegendMM   101.66     LegendNANA
16:00 -3.5 -14.3 43 0.0 LegendMM LegendMM   101.66     LegendNANA
17:00 -3.5 -14.2 43 0.0 LegendMM LegendMM   101.67     LegendNANA
18:00 -3.6 -11.1 56 0.0 LegendMM LegendMM   101.66     LegendNANA
19:00 -4.1 -10.5 61 0.0 LegendMM LegendMM   101.65     LegendNANA
20:00 -3.8 -10.4 60 0.0 LegendMM LegendMM   101.61     LegendNANA
21:00 -3.4 -10.1 60 0.0 LegendMM LegendMM   101.59     LegendNANA
22:00 -2.9 -11.0 54 0.0 LegendMM LegendMM   101.54     LegendNANA
23:00 -2.6 -11.1 52 0.0 LegendMM LegendMM   101.50     LegendNANA

Notes on Data Quality.

Legend

  • E = Estimated
  • M = Missing
  • NA = Not Available*
  • [empty] = Indicates an unobserved value
Date modified: